GFSSGP_sfc_dewp_159.txt.gz
Dewpoint
57 46 46 40 23 21 21 22 21 20 21 27 25 23 30 51 54 52 62 66 72 73 76 77 77 77 77 77 76 76 76 76 76 76 76 77 77 76 76 76 76 76 76 75 74 74 73 72 72
58 46 41 34 19 19 20 22 21 19 22 27 26 25 44 54 59 62 65 70 72 73 75 77 77 77 77 77 76 76 76 76 76 75 76 77 76 76 76 76 76 76 76 75 74 74 73 72 72
59 53 42 22 20 19 20 22 23 24 24 24 26 26 33 55 60 61 66 70 72 72 74 77 77 77 77 77 76 76 76 76 76 75 76 76 76 76 76 76 76 76 75 75 74 73 72 72 72
46 45 39 20 19 22 22 24 25 24 24 21 27 30 44 56 60 66 69 70 70 70 75 77 77 77 77 76 76 76 76 75 76 75 76 76 76 76 76 76 75 75 74 73 73 72 72 72 71
45 37 24 18 17 18 20 21 23 23 24 20 21 26 44 54 61 68 69 70 70 71 75 77 77 77 77 76 76 76 76 75 76 75 76 76 75 76 76 75 75 74 74 72 72 72 73 72 72
37 32 24 17 15 15 15 19 23 23 24 25 20 23 43 49 59 65 69 69 70 73 75 76 77 77 76 76 76 75 75 75 76 75 76 76 76 75 75 75 75 75 74 73 72 73 73 72 72
32 33 26 21 18 15 13 14 17 18 21 23 20 20 37 46 53 58 68 68 69 72 74 75 76 76 76 76 75 75 75 75 75 75 75 75 75 75 75 75 75 74 74 73 73 73 72 72 72
30 29 27 27 23 17 14 13 12 12 13 16 21 23 28 39 49 55 62 67 69 71 72 74 75 74 75 75 76 75 75 75 75 75 75 75 75 75 75 74 74 74 73 73 72 72 71 71 71
24 24 23 23 23 22 20 18 17 17 15 15 16 17 21 51 52 53 55 65 69 70 70 71 74 74 74 75 75 75 75 75 75 75 75 74 74 74 74 74 74 74 73 73 72 71 71 71 71
22 21 21 23 22 21 19 18 19 18 17 18 20 21 18 20 45 48 55 56 67 69 68 68 70 71 72 73 73 74 73 74 73 73 73 72 72 71 71 73 74 74 73 72 72 71 71 71 67
20 17 17 16 16 16 15 14 18 17 16 18 20 23 19 17 28 39 42 56 62 68 67 67 68 67 68 71 72 73 73 72 72 72 72 68 70 70 70 72 72 71 72 69 70 70 70 67 66
18 21 20 15 14 12 11 13 13 12 14 18 18 20 27 27 23 32 39 42 56 66 66 67 66 65 64 71 70 70 70 70 68 70 69 67 68 68 70 70 69 69 68 68 66 66 66 65 63
19 18 16 14 13 13 14 13 14 14 15 16 17 19 25 26 29 28 31 42 46 66 66 66 66 64 66 67 65 66 65 66 66 68 67 67 67 67 69 69 68 67 66 66 65 64 64 64 65
20 20 19 19 18 16 14 14 15 16 18 17 16 18 22 23 25 29 30 40 45 64 66 66 65 64 66 63 63 64 64 64 64 67 65 66 68 66 66 68 66 65 65 64 66 64 66 68 67
19 16 16 17 18 18 18 15 13 13 14 13 17 19 19 21 23 23 27 34 41 65 66 66 66 67 64 63 64 63 63 63 64 66 64 65 69 66 67 68 65 64 66 64 69 69 70 68 68
15 15 13 14 15 13 15 13 14 14 13 12 11 12 20 22 23 23 25 29 40 67 67 67 66 68 65 63 64 64 64 64 64 65 65 64 69 68 67 66 64 66 69 70 70 69 68 68 66
14 10 10 10 11 11 12 12 14 15 13 12 12 12 15 19 23 23 25 30 37 68 69 69 68 68 67 67 66 66 65 65 66 66 65 64 69 68 67 65 64 70 70 69 69 70 69 68 67
16 13 12 11 11 11 9 8 12 16 18 16 18 20 18 18 20 22 23 29 32 65 71 70 72 72 70 70 69 68 67 65 68 66 65 68 69 68 66 65 70 72 71 69 69 69 68 67 65
16 15 15 17 18 17 13 9 11 13 16 16 17 19 20 23 26 28 24 25 37 53 70 71 72 72 72 71 70 68 69 67 68 66 66 68 69 68 67 71 72 70 69 69 68 68 66 64 63
18 16 13 15 20 20 26 18 18 20 18 19 20 19 19 18 18 21 28 28 27 39 70 71 71 71 70 72 71 70 68 66 68 67 67 68 68 67 68 71 71 70 69 69 68 67 65 64 61
17 14 15 17 28 29 30 24 22 25 24 19 19 20 20 18 18 19 21 31 27 28 67 70 71 71 70 70 70 71 69 68 69 67 67 68 68 68 71 71 71 70 69 67 66 66 64 62 61
17 18 19 25 28 25 34 24 25 27 32 27 19 21 17 18 16 18 21 24 35 28 48 69 71 71 69 70 69 69 66 64 67 66 66 68 67 70 72 71 71 69 67 66 64 63 62 61 60
19 20 20 27 29 29 28 28 24 26 24 25 19 20 19 18 17 16 20 22 36 40 37 68 71 72 70 69 69 67 69 69 68 66 68 66 67 71 72 70 68 67 65 64 63 63 63 63 61
23 21 20 26 26 25 25 29 23 25 21 22 22 23 25 21 19 17 16 22 26 38 47 71 71 72 72 71 70 69 69 68 66 67 67 66 70 70 69 68 66 66 65 64 63 63 63 60 59
25 24 25 22 22 19 21 25 28 25 23 26 26 28 29 29 26 23 21 21 23 30 55 70 71 71 71 71 70 70 69 68 67 67 66 69 69 68 67 65 65 65 64 63 63 62 59 58 56
24 28 28 23 23 19 20 18 19 26 32 30 32 35 36 35 33 26 27 21 21 26 61 67 69 71 71 71 70 70 70 69 69 67 67 68 68 67 66 66 65 64 63 64 61 60 58 56 55
25 21 21 26 24 20 19 20 22 28 34 34 38 40 41 41 40 39 27 29 23 26 54 66 69 70 71 70 70 69 70 69 69 67 68 68 67 66 66 65 64 64 62 60 59 55 55 56 54
27 27 22 25 16 16 16 17 18 28 33 35 36 39 41 42 39 40 37 24 33 30 41 65 69 67 70 70 70 69 69 70 69 68 67 66 66 66 65 63 63 61 60 57 56 56 54 52 52
27 26 27 30 30 26 22 22 24 29 34 36 37 40 41 44 39 41 36 26 28 32 30 64 67 68 69 70 70 69 68 69 68 68 67 66 66 64 63 63 61 59 58 56 55 55 52 51 50
30 35 36 32 31 34 33 27 29 29 33 35 39 41 38 42 45 42 38 37 34 34 31 63 66 66 68 69 69 68 69 68 68 67 66 65 63 62 62 60 58 56 55 55 54 51 51 49 48

GFSSGP_sfc_dewp_162.txt.gz
Dewpoint
62 52 44 39 23 20 19 21 21 21 20 24 26 47 48 49 51 50 61 67 71 74 77 77 77 77 77 76 76 76 75 75 75 75 76 76 76 76 76 76 76 76 75 74 74 73 73 72 71
61 53 42 34 19 18 20 22 21 23 22 25 27 53 54 55 59 65 65 70 71 75 76 76 77 77 77 76 76 75 75 75 75 76 76 76 76 76 76 76 76 76 75 74 74 73 72 71 71
59 53 41 24 20 19 20 22 22 25 26 25 24 55 56 58 63 64 69 71 72 75 76 76 77 77 76 76 76 75 75 75 75 76 76 76 76 76 76 76 76 76 74 74 74 73 72 71 71
47 44 42 23 19 21 22 24 25 23 22 25 22 39 50 57 62 67 70 71 71 73 75 77 77 76 76 76 76 75 75 75 75 76 76 76 76 76 76 76 76 75 75 74 73 72 72 71 71
45 36 31 25 19 19 20 21 20 20 22 24 25 27 53 61 67 70 70 69 69 73 75 76 76 76 76 76 76 75 75 75 75 76 76 76 76 75 75 75 75 75 73 72 72 72 72 71 70
36 33 25 24 21 18 17 17 16 15 16 21 22 37 52 65 67 69 70 68 70 73 75 76 76 76 76 76 76 75 75 75 75 75 75 75 75 75 75 75 75 74 73 72 72 72 71 72 71
32 31 28 24 22 21 19 17 12 14 15 13 18 20 44 66 67 69 69 68 73 74 75 75 75 76 76 76 75 75 75 75 75 75 75 75 75 75 75 75 75 74 74 73 73 72 72 71 71
32 31 32 28 28 27 22 21 20 17 17 18 18 20 43 50 68 69 69 69 72 73 74 74 73 73 73 75 75 75 75 75 75 75 75 75 75 75 75 74 74 74 73 73 72 72 71 71 70
25 21 25 25 24 25 24 21 20 20 19 19 21 21 22 41 67 68 68 70 71 72 73 74 73 72 72 73 74 75 75 75 75 75 75 74 74 74 74 74 74 74 73 72 72 71 70 70 70
22 21 21 23 22 19 19 16 15 15 14 18 20 21 22 25 46 67 67 69 69 70 71 73 73 72 72 72 73 73 73 73 73 73 73 73 73 73 73 73 74 74 73 72 71 71 70 70 67
21 20 21 19 19 17 15 15 14 12 12 16 18 19 22 28 28 39 66 68 69 69 70 71 72 73 73 72 71 73 71 72 72 72 73 71 71 72 71 72 72 71 72 69 70 69 69 67 66
19 20 21 20 19 15 14 14 13 13 13 15 17 20 22 26 25 26 34 61 69 68 69 70 71 72 72 72 71 70 70 71 71 71 70 70 69 69 70 71 70 69 69 66 66 67 66 66 65
20 20 20 19 18 17 16 15 15 14 17 20 18 19 19 21 24 25 29 37 68 68 68 68 69 69 71 71 71 71 71 71 70 71 69 68 67 69 70 69 69 67 66 66 65 65 64 64 63
21 19 17 17 16 18 17 16 16 17 17 15 16 18 19 20 22 23 24 32 66 67 67 67 67 67 70 70 70 70 69 69 68 69 68 67 67 68 68 68 67 67 66 65 65 65 64 64 65
21 17 16 15 15 15 15 13 14 18 17 15 15 13 16 21 22 22 24 25 44 60 66 67 66 65 68 67 67 66 67 66 66 67 66 66 67 66 68 68 67 66 65 65 64 65 66 66 67
18 16 14 14 15 15 17 12 14 15 16 16 15 14 14 16 22 23 25 26 35 56 66 66 65 64 66 64 66 66 65 64 64 66 65 65 67 66 66 68 66 66 65 66 67 66 69 67 66
18 12 12 13 13 13 13 11 14 15 15 16 15 15 14 14 17 23 25 25 30 61 66 68 68 66 64 64 66 67 65 63 63 65 65 62 66 69 66 66 66 66 68 69 69 69 67 66 65
17 16 15 14 15 16 17 17 18 17 14 15 17 17 16 17 19 21 24 25 29 60 67 68 69 68 67 69 68 68 67 66 64 64 65 62 65 69 67 66 65 69 70 69 69 67 67 65 63
17 17 16 18 17 15 15 17 25 27 21 16 18 18 19 21 22 25 27 31 32 51 68 68 68 70 69 68 69 68 67 67 66 64 65 63 66 68 66 65 70 70 69 67 67 66 63 62 62
23 20 19 18 16 23 26 28 29 28 26 22 23 22 21 21 18 18 20 27 27 41 68 69 68 70 69 69 70 70 70 69 67 65 65 64 67 67 67 69 69 68 68 67 67 66 64 61 59
22 21 19 17 22 28 29 25 24 24 29 29 28 28 24 21 19 19 18 21 23 29 66 70 69 70 69 68 67 69 71 69 67 65 65 66 67 67 70 70 69 69 68 67 66 64 62 59 60
22 23 22 20 22 20 30 21 21 24 24 25 25 28 26 22 20 19 18 19 23 24 54 68 70 70 68 68 66 66 66 67 67 66 65 66 67 67 70 70 69 69 67 66 64 63 63 60 59
25 26 24 24 25 27 29 26 22 24 23 24 26 27 27 23 21 20 18 17 19 23 32 62 70 69 68 67 65 63 61 64 68 68 65 66 66 69 70 70 68 66 66 63 62 62 61 61 59
28 26 24 24 25 22 24 27 22 23 25 25 24 24 27 29 27 25 23 20 22 25 35 57 69 69 69 68 67 65 64 67 68 67 67 67 68 70 70 69 67 65 63 63 62 61 59 57 56
27 26 24 22 20 20 22 24 24 26 27 27 26 31 38 37 37 37 38 33 25 24 31 54 67 68 69 69 69 67 66 68 67 67 67 67 69 69 67 67 65 64 63 63 61 58 57 55 54
26 27 28 22 22 21 23 22 21 28 30 29 35 39 39 37 39 41 40 39 36 26 28 59 66 67 69 69 69 69 68 68 68 68 67 68 68 68 66 65 64 63 63 61 58 55 55 53 51
27 25 25 25 23 19 18 20 22 22 23 36 37 37 37 38 39 42 40 40 40 37 30 53 65 67 67 67 69 69 68 68 68 68 68 68 68 66 65 64 63 63 60 58 56 55 53 51 50
26 28 25 26 17 17 17 18 17 20 31 35 35 35 39 39 41 42 41 42 41 37 31 46 64 65 66 68 69 68 68 68 69 68 68 68 68 66 64 63 62 60 57 55 55 53 51 50 50
26 27 29 33 31 25 22 22 23 23 30 34 34 36 39 41 41 41 42 42 42 38 32 44 60 65 67 68 66 67 68 68 68 68 69 68 67 65 63 62 60 57 55 54 51 50 49 48 46
30 35 35 30 29 33 30 24 29 29 31 36 38 39 40 42 43 43 44 45 45 40 36 40 50 66 66 66 66 67 68 68 68 68 67 67 65 64 62 60 57 56 55 51 50 49 47 44 41

GFSSGP_sfc_dewp_165.txt.gz
Dewpoint
61 56 43 36 26 20 19 21 21 22 22 25 42 50 48 46 48 46 61 67 71 74 76 75 77 77 76 76 76 75 75 75 75 75 75 75 75 75 75 75 76 76 74 74 73 73 72 71 71
60 52 40 28 23 21 22 21 22 22 25 25 25 49 51 44 54 61 65 69 71 75 75 75 77 77 76 76 75 75 75 75 75 75 76 76 75 75 75 76 76 75 74 74 73 73 72 71 71
53 53 38 25 21 21 22 23 24 24 23 23 24 42 54 56 63 61 66 70 72 74 75 76 77 77 76 76 75 75 74 75 75 75 76 76 75 75 76 76 76 75 74 74 73 73 71 71 71
46 46 40 24 18 20 22 25 22 20 19 24 25 24 45 59 63 66 69 70 72 74 75 76 76 76 76 76 75 75 74 75 75 76 76 75 76 75 75 76 76 75 74 74 73 72 71 71 70
43 37 34 29 24 20 20 20 18 16 17 18 20 24 46 64 69 70 69 70 72 74 75 76 76 76 76 76 75 75 74 75 76 76 75 75 75 75 76 76 76 75 74 73 72 71 71 71 70
37 33 27 26 23 22 20 19 16 16 16 17 16 18 52 67 69 70 70 69 72 73 75 74 76 76 76 76 75 75 74 75 76 75 75 75 75 75 75 75 75 75 73 72 71 71 71 71 70
33 32 30 28 24 28 23 23 18 20 18 17 18 18 38 46 68 70 69 68 71 74 74 74 74 74 76 76 75 75 74 74 75 75 74 75 75 75 75 75 74 74 73 73 72 71 71 70 70
33 31 31 29 29 28 26 25 24 19 18 19 21 18 19 33 69 69 68 70 71 73 73 73 74 74 73 74 75 75 74 74 75 75 75 75 75 75 75 74 74 74 73 72 72 71 70 70 70
27 22 25 28 25 25 23 20 22 19 17 16 20 22 24 61 69 68 68 71 72 72 73 73 73 72 72 72 74 74 74 74 75 75 74 74 73 73 74 74 74 73 72 72 71 71 70 69 69
23 21 21 23 24 21 19 18 17 16 14 15 17 20 27 30 59 67 68 69 70 70 72 72 72 72 71 71 73 73 72 73 73 73 73 72 72 72 73 73 74 73 72 71 71 70 70 69 66
22 20 21 21 21 22 19 19 19 15 14 14 15 17 22 27 33 47 62 69 69 69 71 72 72 71 71 70 71 72 71 72 71 72 72 71 71 72 71 71 72 71 72 69 70 68 68 66 65
20 20 21 20 19 18 17 16 15 15 15 16 17 18 22 25 24 29 36 59 70 70 71 71 71 71 71 71 71 71 69 69 70 69 70 70 71 70 69 70 70 69 69 66 66 66 65 65 64
24 20 19 19 18 18 18 18 17 16 18 19 18 19 18 19 22 26 27 37 66 70 70 71 71 71 71 71 70 70 69 69 69 70 70 70 70 69 69 69 69 68 67 65 64 64 62 62 62
20 20 20 17 16 16 16 16 16 16 18 18 18 17 16 17 20 22 29 31 46 69 70 70 71 71 71 70 69 69 69 69 70 70 70 69 68 69 68 68 68 67 66 65 64 64 63 63 64
21 19 18 16 14 15 17 14 14 16 17 18 17 16 17 16 19 21 23 33 50 67 69 68 69 70 69 70 70 71 71 70 69 69 69 68 67 68 68 68 67 67 66 65 63 64 65 64 66
19 17 15 14 15 15 15 12 15 16 15 16 17 17 17 18 18 19 22 28 33 51 66 68 68 68 69 69 70 70 70 69 68 68 67 67 67 67 67 67 67 66 65 65 64 63 64 67 66
19 15 14 16 16 15 13 13 15 17 17 17 17 18 17 16 20 21 22 24 31 40 50 67 68 66 68 67 67 67 67 67 66 67 65 65 67 67 67 67 67 66 65 65 65 67 67 66 64
17 17 17 17 18 18 16 16 17 18 25 25 23 17 18 21 21 22 24 24 28 38 54 67 68 66 67 67 67 66 66 66 67 65 65 63 65 68 66 66 66 66 67 68 68 67 66 65 63
20 19 18 19 19 18 17 15 17 23 28 27 24 23 23 23 23 24 25 28 29 39 62 66 67 66 66 66 65 66 65 65 65 66 65 61 64 66 67 66 65 67 68 68 68 66 63 61 61
24 23 22 23 22 18 19 20 22 27 27 27 25 24 24 25 26 26 23 22 28 37 62 67 67 66 66 67 66 67 66 66 67 67 66 63 61 65 67 67 68 69 68 67 66 64 63 60 58
22 22 23 22 23 23 26 23 23 22 25 25 28 28 30 29 27 25 24 22 24 40 60 67 68 67 67 67 68 69 69 68 68 67 65 65 61 64 67 67 69 68 68 66 66 64 61 58 59
24 27 26 25 24 23 25 20 20 21 24 25 25 26 26 26 27 26 23 21 21 25 53 68 68 68 67 67 67 67 67 66 67 66 67 66 64 65 68 69 69 68 67 66 65 63 61 58 59
26 28 27 27 26 26 28 24 21 23 21 23 25 26 27 28 28 24 24 23 22 23 44 66 68 69 67 67 66 65 65 65 66 65 67 66 66 66 69 69 69 67 66 64 63 62 60 60 59
27 27 27 26 24 22 23 26 19 21 23 25 26 26 32 33 34 35 36 36 36 28 27 53 68 69 68 67 66 64 65 65 67 67 67 67 67 68 69 69 68 65 63 62 62 60 59 57 56
27 26 22 22 20 20 21 25 22 24 25 25 26 27 36 36 36 38 39 40 40 38 33 42 64 68 68 67 66 65 64 65 67 67 66 67 67 68 69 68 65 63 62 62 59 56 54 53 51
28 27 22 19 21 21 24 22 21 26 27 27 29 35 38 37 36 38 41 40 40 40 41 41 53 66 67 67 67 66 64 64 67 67 67 67 67 68 68 67 64 63 62 59 56 54 53 51 49
26 24 25 24 24 26 24 22 22 22 23 26 36 37 35 37 38 39 41 40 41 42 42 39 47 61 66 66 66 66 66 65 67 67 67 67 68 68 67 64 63 61 58 55 54 51 49 49 49
28 28 22 25 23 20 20 19 18 19 22 34 35 35 38 39 39 40 41 41 42 43 42 41 42 46 64 66 66 66 67 67 68 67 66 67 68 67 65 63 61 59 57 55 53 50 50 49 47
27 29 31 35 33 26 22 22 26 28 33 34 35 36 36 40 40 41 42 42 43 45 44 42 44 54 61 66 66 66 68 68 68 67 66 67 67 66 64 62 59 56 56 54 53 52 50 45 41
30 30 34 28 27 32 27 23 26 26 32 36 36 35 36 40 43 40 39 43 44 45 44 42 42 51 61 65 65 66 67 67 67 67 67 68 66 65 63 60 58 56 54 53 52 51 45 42 38

GFSSGP_sfc_dewp_168.txt.gz
Dewpoint
60 56 43 31 26 22 22 22 20 22 23 24 30 50 49 47 47 44 62 67 72 74 76 76 77 76 76 76 75 76 76 76 76 76 75 75 75 75 75 76 76 76 74 74 73 73 72 71 71
56 51 37 27 24 22 24 22 21 24 24 24 27 46 50 48 51 59 64 69 72 74 75 76 77 76 76 76 75 75 76 76 76 75 75 75 75 75 75 76 76 76 74 74 73 72 71 71 71
51 51 29 23 22 20 22 23 24 21 20 21 21 30 49 55 62 61 65 71 73 74 74 75 77 76 76 76 75 75 75 75 75 75 75 75 75 75 75 76 76 75 74 74 73 72 71 71 71
44 45 37 18 16 20 24 23 19 17 17 17 21 21 27 65 65 64 69 72 73 74 74 76 76 76 76 75 75 75 75 75 75 75 75 75 75 75 75 76 76 75 74 74 73 72 71 71 71
40 37 31 29 26 21 20 19 18 16 16 17 18 18 26 66 69 69 70 72 72 74 74 76 76 76 76 75 75 75 75 75 75 75 75 75 75 75 76 76 76 75 74 74 72 71 71 71 71
36 33 27 24 24 23 24 21 19 18 19 18 16 17 38 62 67 70 70 70 73 73 74 75 76 76 76 75 75 75 74 75 75 75 75 75 75 75 75 76 76 75 74 72 71 71 71 71 71
35 31 28 27 25 28 26 25 19 21 19 17 18 19 20 56 69 69 68 71 73 74 74 74 74 75 76 75 75 74 75 75 75 75 74 75 75 75 75 75 75 75 73 73 72 71 71 71 71
33 31 30 32 28 27 29 22 24 20 18 18 18 18 16 58 68 68 71 71 72 73 73 72 73 74 74 74 75 74 75 75 75 75 75 75 75 75 75 74 74 74 73 73 72 71 71 70 70
28 24 26 30 26 28 24 19 20 21 17 16 16 20 21 49 68 69 70 70 71 71 72 72 71 73 73 73 74 74 74 75 75 75 75 74 74 74 74 73 74 73 73 72 72 71 70 69 68
24 22 22 25 24 22 21 21 20 19 19 15 16 18 21 30 66 68 68 69 70 70 71 72 72 72 72 72 72 73 72 73 74 74 73 73 73 73 73 73 74 73 73 72 71 70 69 68 65
22 20 22 21 22 21 21 17 19 18 15 15 15 17 19 25 29 60 68 69 69 70 71 71 72 72 71 71 72 72 72 71 73 73 73 72 72 73 73 72 73 72 72 69 70 69 68 66 65
24 21 20 19 19 18 17 17 17 16 16 17 18 19 20 21 20 23 33 64 69 70 71 71 72 72 71 71 71 71 70 70 71 72 72 71 69 71 71 71 71 70 70 68 67 66 65 65 65
23 20 20 20 19 17 17 17 16 17 18 19 19 20 20 19 20 22 25 28 54 69 70 71 72 71 71 71 71 70 69 69 69 69 69 69 68 69 70 70 70 69 68 67 65 65 64 63 63
20 20 20 19 18 17 15 14 16 15 17 17 20 19 18 19 19 21 24 28 32 55 70 71 71 72 71 71 71 71 70 69 69 69 69 69 69 70 69 69 69 69 67 67 64 64 64 64 65
21 19 19 19 15 15 16 15 14 16 17 17 18 18 19 20 20 21 23 27 29 40 69 70 71 71 71 71 71 71 70 71 69 69 69 69 70 69 69 68 68 68 67 66 65 65 66 65 66
19 17 15 16 16 17 16 15 16 18 16 17 19 19 22 22 20 21 23 26 29 42 67 70 70 71 71 71 71 71 71 71 70 70 69 69 69 69 68 67 67 68 67 66 65 64 65 68 67
18 16 17 17 18 18 14 18 20 19 18 19 20 23 24 24 23 27 27 26 28 32 43 67 69 69 70 70 71 71 71 70 70 69 68 68 68 67 68 68 67 67 66 66 65 67 67 68 67
15 17 18 19 20 21 20 20 21 20 19 20 24 27 26 24 25 27 28 30 31 35 39 52 68 69 69 70 70 70 69 69 68 68 68 67 67 67 67 67 68 67 66 67 67 68 67 67 65
19 19 19 21 23 21 22 21 21 21 21 26 28 27 26 25 26 28 29 30 32 36 39 53 66 68 68 68 67 68 67 67 67 67 67 65 66 68 67 66 67 67 67 68 68 68 66 63 63
20 21 22 24 25 23 22 23 24 25 26 26 27 26 26 27 27 28 31 32 30 33 40 60 66 66 67 67 67 67 68 67 67 67 67 66 64 66 68 67 67 67 68 68 68 66 63 61 60
25 23 25 25 27 26 24 24 24 25 26 26 26 27 28 28 29 30 32 31 29 32 39 61 66 66 66 67 67 66 67 67 66 66 66 66 64 64 67 68 68 68 68 67 67 66 63 61 61
26 28 27 27 27 24 26 22 23 24 23 25 25 26 26 27 28 29 30 31 29 29 38 56 66 66 66 67 66 65 64 64 65 65 66 66 65 63 66 68 68 68 68 68 67 65 64 62 60
26 28 27 27 26 25 26 23 21 22 21 22 24 26 27 28 29 29 30 29 35 32 29 46 65 67 66 67 66 66 64 64 66 66 66 67 67 64 64 67 68 68 68 67 66 65 62 61 60
28 27 26 26 24 21 21 25 21 21 21 23 26 27 28 31 35 36 38 44 42 38 33 36 62 67 67 67 67 66 66 65 66 66 66 66 67 66 65 67 68 68 67 66 65 64 62 61 60
29 26 20 19 20 20 23 24 23 24 25 25 26 25 28 35 36 37 38 40 43 42 41 42 45 65 67 67 67 66 66 67 66 66 66 67 67 66 67 68 67 66 65 64 63 60 60 60 56
29 26 20 19 20 20 24 22 23 26 27 26 28 29 33 38 37 38 40 41 41 43 44 44 45 47 65 67 67 67 66 66 67 67 66 67 67 67 69 68 67 64 63 60 58 56 54 55 52
26 25 26 25 24 23 22 24 26 26 25 30 33 36 36 38 39 40 40 41 42 43 44 44 45 46 54 67 67 67 66 66 66 67 68 67 68 68 68 67 65 63 60 57 55 52 52 53 50
29 29 23 24 19 20 21 21 21 26 32 34 35 35 36 37 38 40 41 42 42 44 45 46 46 45 46 56 66 67 67 66 65 67 67 67 68 69 66 65 63 60 57 55 53 52 53 52 50
27 27 29 33 31 24 20 19 26 31 33 34 35 35 34 36 36 37 41 39 40 42 44 46 48 48 48 51 61 65 66 66 65 67 67 67 68 67 65 64 61 58 56 55 54 53 51 49 46
30 29 30 29 27 31 29 24 27 27 31 33 35 35 34 35 35 37 38 38 38 37 38 42 46 48 49 53 58 65 65 67 66 67 67 68 67 66 64 62 59 57 55 54 51 49 47 46 42